Weather History for Jonesville, VA

Change the Weather History Date:

Wednesday, December 19, 2012

  Actual Average (KLOZ) Record (KLOZ)
Temperature  
Mean Temperature 40 °F 38 °F  
Max Temperature 55 °F 47 °F 68 °F (2008)
Min Temperature 26 °F 29 °F -8 °F (1963)
Degree Days  
Heating Degree Days 24 27  
Month to date heating degree days 480  
Since 1 July heating degree days 1310  
Cooling Degree Days 0 0  
Month to date cooling degree days 0  
Year to date cooling degree days 1190  
Moisture  
Dew Point 34 °F    
Average Humidity 87    
Maximum Humidity 100    
Minimum Humidity 54    
Precipitation  
Precipitation 0.00 in 0.13 in 0.89 in (1957)
Month to date precipitation 2.71  
Year to date precipitation 45.61  
Sea Level Pressure  
Sea Level Pressure 30.06 in    
Wind  
Wind Speed 0 mph (SSW)    
Max Wind Speed 5 mph    
Max Gust Speed -    
Visibility 10 miles    
Events      
T = Trace of Precipitation, MM = Missing Value Source: NWS Daily Summary

Daily Weather History Graph

Daily Weather History Graph

Search for Another Location

Airport:

Trip Planner

Search our weather history database for the weather conditions in past years. The results will help you decide how hot, cold, wet, or windy it might be!

Date:

Astronomy

Dec. 19, 2012 Rise Set
Actual Time 7:40 AM EST 5:19 PM EST
Civil Twilight 7:11 AM EST 5:48 PM EST
Nautical Twilight 6:39 AM EST 6:21 PM EST
Astronomical Twilight 6:07 AM EST 6:52 PM EST
Moon 11:59 AM EST (12/19) No Moon Set
Length of Visible Light 10h 37m
Length of Day
9h 39m
Waxing Crescent, 45% of the Moon is Illuminated
Dec 19
Waxing Crescent
Dec 20
First Quarter
Dec 28
Full
Jan 4
Last Quarter
Jan 11
New

Hourly Weather History & Observations

Time (EST) Temp. Dew Point Humidity Pressure Visibility Wind Dir Wind Speed Gust Speed Precip Events Conditions
12:15 AM 28.4 °F 28.4 °F 100% 29.96 in 9.0 mi Calm Calm - N/A   Scattered Clouds
12:35 AM 28.4 °F 28.4 °F 100% 29.96 in 8.0 mi Calm Calm - N/A   Overcast
12:55 AM 28.4 °F 28.4 °F 100% 29.97 in 9.0 mi Calm Calm - N/A   Overcast
1:15 AM 28.4 °F 28.4 °F 100% 29.97 in 10.0 mi Calm Calm - N/A   Overcast
1:35 AM 28.4 °F 28.4 °F 100% 29.98 in 10.0 mi Calm Calm - N/A   Mostly Cloudy
1:55 AM 28.4 °F 28.4 °F 100% 29.98 in 9.0 mi Calm Calm - N/A   Mostly Cloudy
2:15 AM 28.4 °F 28.4 °F 100% 29.99 in 9.0 mi Calm Calm - N/A   Partly Cloudy
2:35 AM 28.4 °F 28.4 °F 100% 30.00 in 10.0 mi Calm Calm - N/A   Partly Cloudy
2:55 AM 28.4 °F 28.4 °F 100% 30.00 in 10.0 mi Calm Calm - N/A   Scattered Clouds
3:15 AM 28.4 °F 28.4 °F 100% 30.00 in 10.0 mi Calm Calm - N/A   Scattered Clouds
3:35 AM 26.6 °F 26.6 °F 100% 30.00 in 9.0 mi Calm Calm - N/A   Mostly Cloudy
3:55 AM 26.6 °F 26.6 °F 100% 30.01 in 9.0 mi Calm Calm - N/A   Mostly Cloudy
4:15 AM 28.4 °F 28.4 °F 100% 30.01 in 10.0 mi Calm Calm - N/A   Overcast
4:35 AM 28.4 °F 26.6 °F 93% 30.01 in 10.0 mi Calm Calm - N/A   Overcast
4:55 AM 26.6 °F 26.6 °F 100% 30.02 in 10.0 mi Calm Calm - N/A   Overcast
5:15 AM 28.4 °F 28.4 °F 100% 30.02 in 10.0 mi Calm Calm - N/A   Overcast
5:35 AM 26.6 °F 26.6 °F 100% 30.03 in 10.0 mi Calm Calm - N/A   Overcast
5:55 AM 26.6 °F 26.6 °F 100% 30.04 in 10.0 mi Calm Calm - N/A   Overcast
6:15 AM 26.6 °F 26.6 °F 100% 30.05 in 10.0 mi Calm Calm - N/A   Overcast
6:35 AM 26.6 °F 24.8 °F 93% 30.05 in 10.0 mi Calm Calm - N/A   Overcast
6:55 AM 26.6 °F 26.6 °F 100% 30.05 in 10.0 mi Calm Calm - N/A   Mostly Cloudy
7:15 AM 26.6 °F 26.6 °F 100% 30.06 in 10.0 mi Calm Calm - N/A   Mostly Cloudy
7:35 AM 26.6 °F 26.6 °F 100% 30.07 in 10.0 mi Calm Calm - N/A   Partly Cloudy
7:55 AM 26.6 °F 26.6 °F 100% 30.07 in 9.0 mi Calm Calm - N/A   Clear
8:15 AM 26.6 °F 26.6 °F 100% 30.07 in 10.0 mi Calm Calm - N/A   Clear
8:35 AM 28.4 °F 28.4 °F 100% 30.08 in 9.0 mi Calm Calm - N/A   Clear
8:55 AM 30.2 °F 28.4 °F 93% 30.09 in 10.0 mi Calm Calm - N/A   Clear
9:15 AM 32.0 °F 32.0 °F 100% 30.09 in 9.0 mi Calm Calm - N/A   Clear
9:35 AM 32.0 °F 32.0 °F 100% 30.09 in 10.0 mi Calm Calm - N/A   Clear
9:55 AM 37.4 °F 33.8 °F 87% 30.10 in 10.0 mi Calm Calm - N/A   Clear
10:15 AM 39.2 °F 35.6 °F 87% 30.11 in 10.0 mi Calm Calm - N/A   Clear
10:35 AM 41.0 °F 35.6 °F 81% 30.10 in 10.0 mi Calm Calm - N/A   Clear
10:55 AM 44.6 °F 37.4 °F 76% 30.11 in 10.0 mi Calm Calm - N/A   Clear
11:15 AM 44.6 °F 35.6 °F 71% 30.11 in 10.0 mi Calm Calm - N/A   Clear
11:35 AM 46.4 °F 37.4 °F 71% 30.10 in 10.0 mi Calm Calm - N/A   Clear
11:55 AM 48.2 °F 37.4 °F 66% 30.10 in 10.0 mi Calm Calm - N/A   Clear
12:15 PM 50.0 °F 37.4 °F 62% 30.10 in 10.0 mi SSW 4.6 mph - N/A   Clear
12:35 PM 50.0 °F 37.4 °F 62% 30.09 in 10.0 mi Calm Calm - N/A   Clear
12:55 PM 50.0 °F 37.4 °F 62% 30.07 in 10.0 mi Calm Calm - N/A   Clear
1:15 PM 51.8 °F 37.4 °F 58% 30.07 in 10.0 mi Calm Calm - N/A   Clear
1:35 PM 53.6 °F 37.4 °F 54% 30.08 in 10.0 mi Calm Calm - N/A   Clear
1:55 PM 53.6 °F 39.2 °F 58% 30.06 in 10.0 mi Calm Calm - N/A   Clear
2:15 PM 53.6 °F 39.2 °F 58% 30.06 in 10.0 mi Calm Calm - N/A   Clear
2:35 PM 55.4 °F 39.2 °F 54% 30.06 in 10.0 mi Calm Calm - N/A   Clear
2:55 PM 55.4 °F 39.2 °F 54% 30.07 in 10.0 mi Calm Calm - N/A   Clear
3:15 PM 55.4 °F 39.2 °F 54% 30.06 in 10.0 mi Calm Calm - N/A   Clear
3:35 PM 55.4 °F 39.2 °F 54% 30.06 in 10.0 mi Calm Calm - N/A   Clear
3:55 PM 55.4 °F 39.2 °F 54% 30.06 in 10.0 mi Calm Calm - N/A   Clear
4:15 PM 55.4 °F 39.2 °F 54% 30.07 in 10.0 mi Calm Calm - N/A   Clear
4:35 PM 53.6 °F 41.0 °F 62% 30.07 in 10.0 mi Calm Calm - N/A   Clear
4:55 PM 53.6 °F 41.0 °F 62% 30.07 in 10.0 mi Calm Calm - N/A   Clear
5:15 PM 48.2 °F 41.0 °F 76% 30.07 in 10.0 mi Calm Calm - N/A   Clear
5:35 PM 46.4 °F 41.0 °F 81% 30.07 in 10.0 mi Calm Calm - N/A   Clear
5:55 PM 46.4 °F 41.0 °F 81% 30.08 in 10.0 mi Calm Calm - N/A   Clear
6:15 PM 44.6 °F 41.0 °F 87% 30.08 in 10.0 mi Calm Calm - N/A   Clear
6:35 PM 42.8 °F 39.2 °F 87% 30.09 in 10.0 mi Calm Calm - N/A   Clear
6:55 PM 41.0 °F 39.2 °F 93% 30.09 in 10.0 mi Calm Calm - N/A   Clear
7:15 PM 41.0 °F 39.2 °F 93% 30.09 in 10.0 mi Calm Calm - N/A   Partly Cloudy
7:35 PM 39.2 °F 37.4 °F 93% 30.09 in 10.0 mi Calm Calm - N/A   Partly Cloudy
7:55 PM 39.2 °F 37.4 °F 93% 30.09 in 10.0 mi Calm Calm - N/A   Scattered Clouds
8:15 PM 39.2 °F 39.2 °F 100% 30.10 in 10.0 mi Calm Calm - N/A   Scattered Clouds
8:35 PM 37.4 °F 37.4 °F 100% 30.09 in 10.0 mi Calm Calm - N/A   Scattered Clouds
8:55 PM 39.2 °F 37.4 °F 93% 30.10 in 10.0 mi Calm Calm - N/A   Scattered Clouds
9:15 PM 37.4 °F 37.4 °F 100% 30.10 in 10.0 mi Calm Calm - N/A   Scattered Clouds
9:35 PM 37.4 °F 37.4 °F 100% 30.09 in 10.0 mi Calm Calm - N/A   Partly Cloudy
9:55 PM 37.4 °F 37.4 °F 100% 30.09 in 10.0 mi Calm Calm - N/A   Partly Cloudy
10:15 PM 35.6 °F 35.6 °F 100% 30.09 in 8.0 mi Calm Calm - N/A   Scattered Clouds
10:35 PM 37.4 °F 37.4 °F 100% 30.09 in 10.0 mi Calm Calm - N/A   Partly Cloudy
10:55 PM 35.6 °F 35.6 °F 100% 30.10 in 8.0 mi Calm Calm - N/A   Partly Cloudy
11:15 PM 35.6 °F 35.6 °F 100% 30.09 in 7.0 mi Calm Calm - N/A   Partly Cloudy
11:35 PM 35.6 °F 35.6 °F 100% 30.08 in 8.0 mi Calm Calm - N/A   Unknown
11:55 PM 35.6 °F 35.6 °F 100% 30.08 in 6.0 mi Calm Calm - N/A   Scattered Clouds